CZ-6A DEB, 54522

Orbit data source: Space-Track

CZ-6A DEB, 54522 is space debris in SSO originally from a launch on Fri, 11 Nov 2022 UTC launched from the Taiyaun Space Center, China (TSC). Debris objects in space refer to the collection of defunct objects orbiting the Earth. Examples of debris include non-operational satellites, rocket bodies, and fragments generated from explosions, collisions, or faulty payload assembly.

Loading next visibility...
Identifier
54522, 2022-151KA
Orbit
SSO
Country
Flag of CNCN / PRC
Related business
Manufacturer
SAST
Mission
Spacecraft
Bus & Motor
Unknown
Mass
Unknown
Launch date (UTC)
2022-11-11 (3 years ago)
Launch vehicle
Unknown
Launch site
Taiyaun Space Center, China (TSC)
Object type
Payload
Rocket body
Debris
Shape & HBR
Unknown shape, 0.1 m
Radar Cross Section
Small (<0.1 m²)

Expand to show TLE details & history
Last TLE update: 15 hours ago

TLE from 15 hours ago
0 CZ-6A DEB
1 54522U 22151KA  25354.93493876  .00000280  00000-0  20201-3 0  9995
2 54522  98.8718 335.8216 0109022 203.0942 156.5303 14.01717256158666
Epoch: 2025-12-20T22:26Z
TLE epoch observation values (Epoch: 2025-12-20T22:26:18.708Z)
Latitude
-0.00005°
Longitude
-90.51095°
Altitude
963.55 km
Speed
7.333 km/s
True Right ascension
22h 23m 17s
True Declination
0° 00' 00"
Sunlit
Object was in daylight at epoch
Visualization orbit readout
Latitude
Unknown
Longitude
Unknown
Altitude
Unknown
Speed
Unknown
Apparent Right ascension
Unknown
Apparent Declination
Unknown
Sunlit
N/A
Visualization observer readout
Local Sidereal Time
12:15:02
Azimuth
Unknown
Elevation
Unknown
Doppler factor
Unknown
Orbital elements
Apogee altitude
964.23 km
Perigee altitude
805.86 km
Semi-major axis
7,263.182 km
Eccentricity
0.0109
Inclination
98.8718°
RAAN
335.8216°
Arg. of periapsis
203.0942°
True anomaly
157.0217°
Mean anomaly
156.5303°
Eccentric anomaly
156.77661°
Mean motion
3.50633 °/min
Orbital period
102.67 mins
BSTAR
0.00020201
Loading maneuver chart data...
Computing Atmospheric mass density...
Loading historical data...
Loading historical data...
Loading historical data...
Loading historical data...
Loading historical data...
Loading historical data...
Loading historical data...

Documentation

Showing up to 5 results
|